Hourly Data Report for September 23, 2017

All times are specified in Local Standard Time (LST). Add 1 hour to adjust for Daylight Saving Time where and when it is observed.

QIKIQTARJUAQ A
NUNAVUT

67°32'48.000" N
64°01'54.000" W
5.50 m
2400577
YVM

Download Data

Hourly Data (September 2017)
Hourly Data Report for September 23, 2017
Temp Definition
°C
Dew Point Temp Definition
°C
Rel Hum Definition
%
Wind Dir Definition
10's deg

Wind Spd Definition
km/h
Visibility Definition
km
Stn Press Definition
kPa
Hmdx Definition


Wind Chill Definition


Weather Definition


TIME
00:00 Legend Double Dagger 0.4 -3.9 73 31 15 16.1 101.10     LegendNANA
01:00 Legend Double Dagger 0.2 -4.4 71 32 13 16.1 101.09     LegendNANA
02:00 Legend Double Dagger 0.4 -4.1 72 31 18 16.1 101.07     LegendNANA
03:00 Legend Double Dagger 0.5 -4.4 70 30 15 16.1 101.06     LegendNANA
04:00 Legend Double Dagger 0.1 -5.0 69 29 13 16.1 101.06     LegendNANA
05:00 Legend Double Dagger -0.1 -4.4 73 27 13 16.1 101.06   -4 LegendNANA
06:00 Legend Double Dagger 1.1 -4.3 68 31 21 16.1 101.02     LegendNANA
07:00 Legend Double Dagger 1.4 -4.0 67 31 21 16.1 101.00     LegendNANA
08:00 Legend Double Dagger 1.2 -3.9 69 32 15 16.1 100.98     LegendNANA
09:00 Legend Double Dagger 1.6 -3.4 70 32 17 16.1 100.97     LegendNANA
10:00 Legend Double Dagger 1.7 -2.6 73 33 18 16.1 100.96     LegendNANA
11:00 Legend Double Dagger 1.9 -3.1 70 33 17 16.1 100.95     LegendNANA
12:00 Legend Double Dagger 1.9 -3.5 67 35 22 16.1 100.93     LegendNANA
13:00 Legend Double Dagger 1.8 -3.6 68 35 13 16.1 100.92     LegendNANA
14:00 Legend Double Dagger 1.7 -3.0 71 34 17 16.1 100.92     LegendNANA
15:00 Legend Double Dagger 1.4 -2.8 74 33 21 16.1 100.93     LegendNANA
16:00 Legend Double Dagger 1.1 -2.8 76 34 13 16.1 100.92     LegendNANA
17:00 Legend Double Dagger 0.9 -2.7 77 33 15 16.1 100.89     LegendNANA
18:00 Legend Double Dagger 0.7 -3.0 76 30 13 16.1 100.89     LegendNANA
19:00 Legend Double Dagger 0.2 -4.0 73 29 18 16.1 100.86     LegendNANA
20:00 Legend Double Dagger 0.1 -4.3 72 29 17 16.1 100.83     LegendNANA
21:00 Legend Double Dagger 0.4 -4.4 70 29 21 16.1 100.79     LegendNANA
22:00 Legend Double Dagger 0.4 -4.4 70 34 13 16.1 100.76     LegendNANA
23:00 Legend Double Dagger 0.5 -1.6 86 35 28 16.1 100.71     LegendNANA

Notes on Data Quality.

Legend

  • E = Estimated
  • M = Missing
  • NA = Not Available
  • ‡ = Partner data that is not subject to review by the National Climate Archives
Date modified: